Weather History for Harlingen, TX

Change the Weather History Date:

Saturday, March 22, 2014

  Actual Average Record
Temperature  
Mean Temperature 77 °F 70 °F  
Max Temperature 82 °F 82 °F 95 °F (1952)
Min Temperature 72 °F 59 °F 37 °F (2010)
Degree Days  
Heating Degree Days 0 1  
Month to date heating degree days 96 40  
Since 1 July heating degree days 907 608  
Cooling Degree Days 12 6  
Month to date cooling degree days 62 107  
Year to date cooling degree days 173 232  
Growing Degree Days 27 (Base 50)    
Moisture  
Dew Point 70 °F    
Average Humidity 78    
Maximum Humidity 93    
Minimum Humidity 63    
Precipitation  
Precipitation 0.00 in 0.05 in 0.70 in (1941)
Month to date precipitation 1.65 0.82  
Year to date precipitation 2.65 3.29  
Sea Level Pressure  
Sea Level Pressure 29.91 in    
Wind  
Wind Speed 10 mph (SSE)    
Max Wind Speed 20 mph    
Max Gust Speed 23 mph    
Visibility 10 miles    
Events      
T = Trace of Precipitation, MM = Missing Value Source: NWS Daily Summary

Daily Weather History Graph

Daily Weather History Graph

Search for Another Location

Airport:

Trip Planner

Search our weather history database for the weather conditions in past years. The results will help you decide how hot, cold, wet, or windy it might be!

Date:

Astronomy

Mar. 22, 2014 Rise Set
Actual Time 7:32 AM CDT 7:42 PM CDT
Civil Twilight 7:09 AM CDT 8:05 PM CDT
Nautical Twilight 6:42 AM CDT 8:32 PM CDT
Astronomical Twilight 6:15 AM CDT 8:59 PM CDT
Moon 12:36 AM CDT 11:44 AM CDT
Length of Visible Light 12h 56m
Length of Day
12h 10m
Waning Gibbous, 65% of the Moon is Illuminated
Mar 22
Waning Gibbous
Mar 23
Last Quarter
Mar 30
New
Apr 7
First Quarter
Apr 15
Full

Hourly Weather History & Observations

Time (CDT) Temp. Heat Index Dew Point Humidity Pressure Visibility Wind Dir Wind Speed Gust Speed Precip Events Conditions
12:52 AM 73.0 °F - 69.1 °F 87% 29.89 in 10.0 mi SSE 11.5 mph - N/A   Overcast
1:52 AM 73.0 °F - 70.0 °F 90% 29.89 in 10.0 mi South 12.7 mph - N/A   Overcast
2:52 AM 73.0 °F - 70.0 °F 90% 29.88 in 10.0 mi South 10.4 mph - N/A   Overcast
3:01 AM 73.4 °F - 69.8 °F 88% 29.88 in 10.0 mi South 6.9 mph - N/A   Overcast
3:52 AM 73.0 °F - 70.0 °F 90% 29.88 in 10.0 mi South 9.2 mph - N/A   Overcast
4:52 AM 73.0 °F - 70.0 °F 90% 29.87 in 10.0 mi SSE 9.2 mph - N/A   Overcast
5:52 AM 72.0 °F - 69.1 °F 91% 29.87 in 10.0 mi SSE 9.2 mph - N/A   Overcast
6:36 AM 73.4 °F - 69.8 °F 88% 29.88 in 10.0 mi SSE 9.2 mph - N/A   Overcast
6:52 AM 73.0 °F - 70.0 °F 90% 29.89 in 10.0 mi South 9.2 mph - N/A   Overcast
7:52 AM 72.0 °F - 70.0 °F 93% 29.91 in 10.0 mi SSE 8.1 mph - N/A   Overcast
8:52 AM 73.0 °F - 70.0 °F 90% 29.93 in 10.0 mi SSE 8.1 mph - N/A   Overcast
9:52 AM 75.0 °F - 69.1 °F 82% 29.94 in 10.0 mi South 13.8 mph - N/A   Overcast
10:43 AM 77.0 °F - 69.8 °F 78% 29.94 in 10.0 mi South 13.8 mph - N/A   Overcast
10:52 AM 79.0 °F - 70.0 °F 74% 29.94 in 10.0 mi SSE 16.1 mph - N/A   Overcast
11:52 AM 80.1 °F 83.2 °F 70.0 °F 71% 29.94 in 10.0 mi SSE 11.5 mph - N/A   Mostly Cloudy
12:52 PM 81.0 °F 84.4 °F 70.0 °F 69% 29.93 in 10.0 mi SSE 13.8 mph - N/A   Overcast
1:52 PM 80.1 °F 83.2 °F 70.0 °F 71% 29.91 in 10.0 mi SSE 10.4 mph - N/A   Overcast
2:17 PM 80.6 °F 83.9 °F 69.8 °F 70% 29.90 in 10.0 mi South 15.0 mph - N/A   Overcast
2:52 PM 81.0 °F 84.4 °F 70.0 °F 69% 29.89 in 10.0 mi SSE 9.2 mph - N/A   Overcast
3:52 PM 82.0 °F 85.5 °F 69.1 °F 65% 29.87 in 10.0 mi South 6.9 mph - N/A   Overcast
4:52 PM 82.0 °F 85.5 °F 69.1 °F 65% 29.86 in 10.0 mi SSE 8.1 mph - N/A   Overcast
5:52 PM 82.0 °F 84.9 °F 68.0 °F 62% 29.86 in 10.0 mi SE 9.2 mph - N/A   Overcast
6:52 PM 77.0 °F - 70.0 °F 79% 29.88 in 10.0 mi ESE 12.7 mph - N/A   Overcast
7:02 PM 77.0 °F - 69.8 °F 78% 29.88 in 10.0 mi ESE 12.7 mph - N/A   Overcast
7:50 PM 75.2 °F - 71.6 °F 89% 29.89 in 10.0 mi ESE 15.0 mph - N/A   Overcast
7:52 PM 75.0 °F - 71.1 °F 87% 29.89 in 10.0 mi ESE 12.7 mph - N/A   Overcast
8:52 PM 75.0 °F - 71.1 °F 87% 29.91 in 10.0 mi ESE 10.4 mph - N/A   Overcast
9:52 PM 73.9 °F - 71.1 °F 91% 29.93 in 10.0 mi East 6.9 mph - N/A   Overcast
10:52 PM 73.0 °F - 71.1 °F 93% 29.96 in 7.0 mi SE 9.2 mph - N/A   Mostly Cloudy
10:56 PM 73.4 °F - 71.6 °F 94% 29.96 in 7.0 mi SE 9.2 mph - N/A   Mostly Cloudy
11:50 PM 73.4 °F - 71.6 °F 94% 29.96 in 6.0 mi SE 10.4 mph - N/A   Overcast
11:52 PM 73.0 °F - 71.1 °F 93% 29.96 in 6.0 mi SE 10.4 mph - N/A   Overcast